TimeCDT,TemperatureF,Dew PointF,Humidity,Sea Level PressureIn,VisibilityMPH,Wind Direction,Wind SpeedMPH,Gust SpeedMPH,PrecipitationIn,Events,Conditions,WindDirDegrees,DateUTC
12:18 AM,26.6,19.4,74,30.27,10.0,Calm,Calm,-,N/A,,Clear,0,2013-04-02 05:18:00
12:37 AM,26.6,19.4,74,30.27,10.0,Calm,Calm,-,N/A,,Clear,0,2013-04-02 05:37:00
12:57 AM,23.0,19.4,86,30.28,10.0,Calm,Calm,-,N/A,,Clear,0,2013-04-02 05:57:00
1:17 AM,23.0,19.4,86,30.28,10.0,Calm,Calm,-,N/A,,Clear,0,2013-04-02 06:17:00
1:37 AM,23.0,19.4,86,30.28,10.0,Calm,Calm,-,N/A,,Clear,0,2013-04-02 06:37:00
1:57 AM,23.0,19.4,86,30.28,10.0,Calm,Calm,-,N/A,,Clear,0,2013-04-02 06:57:00
2:17 AM,23.0,19.4,86,30.28,10.0,Calm,Calm,-,N/A,,Clear,0,2013-04-02 07:17:00
2:37 AM,21.2,17.6,86,30.27,10.0,Calm,Calm,-,N/A,,Clear,0,2013-04-02 07:37:00
2:57 AM,19.4,17.6,93,30.27,10.0,Calm,Calm,-,N/A,,Clear,0,2013-04-02 07:57:00
3:17 AM,19.4,17.6,93,30.26,10.0,Calm,Calm,-,N/A,,Clear,0,2013-04-02 08:17:00
3:37 AM,19.4,17.6,93,30.26,10.0,Calm,Calm,-,N/A,,Clear,0,2013-04-02 08:37:00
3:57 AM,21.2,19.4,93,30.26,10.0,Calm,Calm,-,N/A,,Clear,0,2013-04-02 08:57:00
4:17 AM,21.2,17.6,86,30.26,10.0,Calm,Calm,-,N/A,,Clear,0,2013-04-02 09:17:00
4:37 AM,21.2,17.6,86,30.26,10.0,Calm,Calm,-,N/A,,Clear,0,2013-04-02 09:37:00
4:57 AM,19.4,17.6,93,30.27,10.0,Calm,Calm,-,N/A,,Clear,0,2013-04-02 09:57:00
5:17 AM,19.4,17.6,93,30.27,10.0,Calm,Calm,-,N/A,,Clear,0,2013-04-02 10:17:00
5:37 AM,21.2,17.6,86,30.27,10.0,Calm,Calm,-,N/A,,Clear,0,2013-04-02 10:37:00
5:57 AM,19.4,17.6,93,30.28,10.0,Calm,Calm,-,N/A,,Clear,0,2013-04-02 10:57:00
6:17 AM,19.4,17.6,93,30.28,10.0,Calm,Calm,-,N/A,,Clear,0,2013-04-02 11:17:00
6:37 AM,19.4,17.6,93,30.28,10.0,Calm,Calm,-,N/A,,Clear,0,2013-04-02 11:37:00
6:57 AM,19.4,17.6,93,30.29,10.0,Calm,Calm,-,N/A,,Clear,0,2013-04-02 11:57:00
7:17 AM,19.4,15.8,86,30.29,10.0,Calm,Calm,-,N/A,,Clear,0,2013-04-02 12:17:00
7:37 AM,21.2,17.6,86,30.30,10.0,Calm,Calm,-,N/A,,Clear,0,2013-04-02 12:37:00
7:57 AM,21.2,19.4,93,30.29,10.0,Calm,Calm,-,N/A,,Clear,0,2013-04-02 12:57:00
8:17 AM,23.0,21.2,93,30.30,10.0,Calm,Calm,-,N/A,,Clear,0,2013-04-02 13:17:00
8:37 AM,24.8,21.2,86,30.30,10.0,Calm,Calm,-,N/A,,Clear,0,2013-04-02 13:37:00
8:57 AM,26.6,21.2,80,30.31,10.0,Calm,Calm,-,N/A,,Clear,0,2013-04-02 13:57:00
9:37 AM,30.2,21.2,69,30.30,10.0,Calm,Calm,-,N/A,,Clear,0,2013-04-02 14:37:00
9:57 AM,32.0,23.0,69,30.30,10.0,Calm,Calm,-,N/A,,Clear,0,2013-04-02 14:57:00
10:17 AM,32.0,21.2,64,30.31,10.0,Calm,Calm,-,N/A,,Clear,0,2013-04-02 15:17:00
10:37 AM,33.8,21.2,60,30.30,10.0,Calm,Calm,-,N/A,,Clear,0,2013-04-02 15:37:00
10:57 AM,33.8,19.4,56,30.31,10.0,Calm,Calm,-,N/A,,Clear,0,2013-04-02 15:57:00
11:17 AM,35.6,19.4,52,30.31,10.0,East,3.5,-,N/A,,Clear,80,2013-04-02 16:17:00
11:37 AM,37.4,15.8,41,30.31,10.0,Calm,Calm,-,N/A,,Clear,0,2013-04-02 16:37:00
11:57 AM,37.4,17.6,45,30.31,10.0,Calm,Calm,-,N/A,,Clear,0,2013-04-02 16:57:00
12:17 PM,39.2,17.6,42,30.31,10.0,Calm,Calm,-,N/A,,Clear,0,2013-04-02 17:17:00
12:37 PM,39.2,15.8,39,30.31,10.0,Calm,Calm,-,N/A,,Clear,0,2013-04-02 17:37:00
12:57 PM,41.0,17.6,39,30.30,10.0,Calm,Calm,-,N/A,,Clear,0,2013-04-02 17:57:00
1:17 PM,41.0,17.6,39,30.29,10.0,Calm,Calm,-,N/A,,Clear,0,2013-04-02 18:17:00
1:37 PM,41.0,17.6,39,30.29,10.0,Calm,Calm,-,N/A,,Scattered Clouds,0,2013-04-02 18:37:00
1:57 PM,41.0,17.6,39,30.29,10.0,NW,3.5,-,N/A,,Mostly Cloudy,310,2013-04-02 18:57:00
2:17 PM,42.8,17.6,36,30.28,10.0,North,3.5,-,N/A,,Mostly Cloudy,360,2013-04-02 19:17:00
2:37 PM,41.0,17.6,39,30.27,10.0,SE,4.6,-,N/A,,Mostly Cloudy,130,2013-04-02 19:37:00
2:57 PM,42.8,19.4,39,30.27,10.0,SW,3.5,-,N/A,,Mostly Cloudy,230,2013-04-02 19:57:00
3:18 PM,42.8,17.6,36,30.27,10.0,NNW,3.5,-,N/A,,Scattered Clouds,330,2013-04-02 20:18:00
3:37 PM,44.6,17.6,34,30.26,10.0,WSW,3.5,-,N/A,,Scattered Clouds,250,2013-04-02 20:37:00
3:57 PM,42.8,17.6,36,30.27,10.0,NW,5.8,-,N/A,,Clear,310,2013-04-02 20:57:00
4:18 PM,44.6,19.4,37,30.26,10.0,North,6.9,-,N/A,,Scattered Clouds,10,2013-04-02 21:18:00
4:37 PM,44.6,17.6,34,30.26,10.0,WNW,3.5,-,N/A,,Scattered Clouds,300,2013-04-02 21:37:00
4:52 PM,44.6,19.4,37,30.26,10.0,North,5.8,-,N/A,,Scattered Clouds,350,2013-04-02 21:52:00
5:24 PM,44.6,17.6,34,30.26,10.0,NNW,3.5,9.2,N/A,,Clear,330,2013-04-02 22:24:00
5:37 PM,44.6,17.6,34,30.26,10.0,NNW,5.8,-,N/A,,Scattered Clouds,340,2013-04-02 22:37:00
5:57 PM,44.6,17.6,34,30.26,10.0,NNE,4.6,-,N/A,,Clear,20,2013-04-02 22:57:00
6:17 PM,44.6,19.4,37,30.26,10.0,NNE,4.6,-,N/A,,Scattered Clouds,30,2013-04-02 23:17:00
6:37 PM,42.8,19.4,39,30.26,10.0,NE,8.1,-,N/A,,Scattered Clouds,40,2013-04-02 23:37:00
6:57 PM,42.8,21.2,42,30.26,10.0,NE,8.1,-,N/A,,Clear,50,2013-04-02 23:57:00
7:17 PM,41.0,23.0,49,30.26,10.0,NE,9.2,-,N/A,,Clear,40,2013-04-03 00:17:00
7:37 PM,41.0,24.8,53,30.27,10.0,ENE,10.4,-,N/A,,Clear,70,2013-04-03 00:37:00
7:57 PM,37.4,26.6,65,30.26,10.0,NE,9.2,-,N/A,,Clear,50,2013-04-03 00:57:00
8:18 PM,35.6,26.6,70,30.27,10.0,ENE,9.2,-,N/A,,Clear,60,2013-04-03 01:18:00
8:37 PM,33.8,26.6,75,30.28,10.0,ENE,9.2,-,N/A,,Clear,70,2013-04-03 01:37:00
8:57 PM,33.8,26.6,75,30.28,10.0,ENE,9.2,-,N/A,,Clear,60,2013-04-03 01:57:00
9:18 PM,32.0,26.6,80,30.29,10.0,ENE,6.9,-,N/A,,Clear,60,2013-04-03 02:18:00
9:37 PM,32.0,26.6,80,30.29,10.0,ENE,8.1,-,N/A,,Clear,60,2013-04-03 02:37:00
9:57 PM,32.0,26.6,80,30.31,10.0,ENE,6.9,-,N/A,,Clear,70,2013-04-03 02:57:00
10:18 PM,32.0,26.6,80,30.31,10.0,ENE,4.6,-,N/A,,Clear,70,2013-04-03 03:18:00
10:37 PM,32.0,26.6,80,30.32,10.0,East,3.5,-,N/A,,Clear,80,2013-04-03 03:37:00
10:57 PM,30.2,24.8,80,30.32,10.0,ENE,4.6,-,N/A,,Clear,70,2013-04-03 03:57:00
11:18 PM,30.2,24.8,80,30.31,10.0,ENE,3.5,-,N/A,,Clear,60,2013-04-03 04:18:00
11:37 PM,30.2,24.8,80,30.31,10.0,East,3.5,-,N/A,,Clear,80,2013-04-03 04:37:00
11:57 PM,30.2,23.0,75,30.31,10.0,East,3.5,-,N/A,,Clear,80,2013-04-03 04:57:00